RH
2 3 3 3 3 4 5 6 7 7 6 4 4 4 4 5 4 4 5 5 5 5 3 3 3 4 13 24 45 75 79 69 67 75 36 44 29 24 23 27 25 34 45 37 35
2 2 2 3 3 3 3 4 4 4 4 4 4 4 2 2 2 2 2 3 4 4 5 4 3 3 5 15 37 59 73 74 65 51 36 59 53 72 38 21 25 24 26 31 32
2 3 4 4 4 4 4 4 5 5 4 3 2 2 2 2 3 3 3 2 2 3 3 5 5 4 4 8 16 42 60 77 68 54 41 55 64 69 41 20 18 25 22 25 37
4 3 3 2 3 3 3 3 3 2 2 3 3 3 3 3 3 3 3 3 3 3 3 3 4 6 5 6 12 37 50 50 47 57 64 69 72 81 59 66 46 18 22 26 41
3 3 3 3 3 3 3 3 3 3 3 4 3 3 3 3 3 3 3 3 3 3 3 4 4 4 6 7 13 24 48 50 61 66 67 65 59 66 71 56 30 13 18 24 42
4 4 3 4 4 4 4 4 4 4 3 3 3 3 3 3 3 3 3 3 3 3 3 4 4 4 5 6 9 23 36 66 76 69 49 49 45 41 47 45 18 16 12 20 37
4 4 4 4 4 4 4 4 4 3 3 3 3 3 3 3 3 3 3 3 3 3 3 4 4 4 4 5 6 8 18 69 77 68 63 62 52 50 46 32 36 43 44 12 21
5 4 4 4 4 4 3 4 4 3 3 3 3 3 3 3 3 3 3 3 3 3 3 3 4 4 5 5 4 6 11 31 49 40 53 70 64 46 31 38 16 49 59 54 17
4 4 4 4 4 4 4 4 4 4 4 3 3 3 3 3 3 3 3 3 3 3 4 4 4 5 5 5 5 5 8 9 14 26 44 34 52 50 32 27 37 17 29 54 15
4 3 4 4 4 4 4 4 4 4 4 3 3 3 3 3 3 3 3 4 4 5 5 5 5 6 6 6 6 6 6 7 8 14 16 16 35 60 38 35 32 36 17 30 18
5 4 4 5 5 5 5 4 4 4 4 4 4 4 4 4 4 5 5 5 6 7 8 7 6 6 6 7 7 7 7 6 6 8 10 25 61 66 63 56 45 30 27 32 19
5 5 5 5 5 5 5 4 4 5 5 4 4 4 4 4 4 6 10 13 14 14 16 12 8 7 7 8 8 8 8 7 7 6 8 12 22 36 41 42 41 23 27 34 38
7 6 7 6 6 5 5 5 5 7 8 8 10 11 11 11 13 14 14 14 14 16 20 21 16 13 11 10 10 9 8 8 8 7 7 9 14 17 29 44 47 41 38 32 41
26 25 21 20 18 15 10 8 12 18 19 23 22 22 21 19 18 18 18 17 16 16 16 16 18 18 18 17 14 11 10 10 9 8 10 11 18 17 20 40 54 51 45 46 22
33 34 32 29 27 18 14 16 26 33 28 29 27 26 24 23 21 20 21 20 19 19 19 19 17 17 19 20 19 13 14 13 12 11 12 12 12 50 18 20 26 45 56 43 25
32 33 34 34 33 29 25 25 33 36 33 29 26 25 26 25 25 24 24 22 22 23 23 21 20 20 20 19 18 18 14 14 12 12 13 20 14 43 58 22 27 26 23 34 35
28 32 34 33 32 33 30 31 32 33 31 31 30 28 27 26 25 23 24 24 27 27 27 25 24 23 22 21 21 21 19 16 17 31 20 35 15 14 23 21 25 31 22 24 21
27 30 34 32 30 28 31 32 30 28 30 29 30 28 27 26 28 30 31 30 31 32 35 35 34 30 27 24 22 20 20 22 73 70 60 29 16 23 19 20 15 22 25 25 18
27 24 34 33 29 25 23 24 29 32 31 32 33 33 32 32 33 32 31 25 26 30 35 38 37 34 33 31 29 27 24 21 39 64 39 27 24 25 23 24 15 17 30 43 37
28 24 20 26 26 18 17 17 16 18 17 16 16 16 16 14 16 21 23 22 24 24 27 35 40 40 37 37 37 35 30 30 24 35 64 63 45 29 37 30 20 14 42 52 62
41 28 27 19 15 17 21 20 17 21 24 23 22 23 24 24 22 20 22 23 26 25 25 34 34 48 36 38 46 38 37 31 35 52 69 68 64 72 40 34 18 15 22 37 53
34 35 35 26 25 24 24 26 26 26 28 27 27 26 26 24 24 23 22 22 25 31 34 38 36 42 51 58 39 52 48 42 63 50 44 35 38 57 41 44 25 17 16 41 50
32 37 37 33 33 28 26 26 26 26 30 34 33 33 32 30 28 28 26 25 25 26 30 34 43 45 48 56 59 40 44 50 57 75 76 80 70 81 50 48 35 20 43 59 56
33 34 39 37 35 41 39 33 33 35 35 36 35 34 34 34 32 31 33 31 32 32 31 31 40 42 66 81 88 61 49 54 49 83 77 66 75 63 67 58 40 28 39 55 57
40 42 44 43 41 36 44 47 46 45 43 41 39 38 37 38 38 39 39 37 40 39 38 38 37 40 38 39 45 49 49 53 57 56 60 78 84 84 51 81 53 34 36 39 53
48 46 45 48 50 53 44 49 53 51 53 53 52 49 49 48 45 43 41 41 43 40 41 41 39 41 36 36 32 29 32 47 51 56 63 54 41 51 72 58 64 48 40 50 60
52 54 52 52 57 58 58 60 58 57 52 50 49 52 55 50 51 52 51 49 46 44 42 42 42 43 39 43 39 28 31 27 33 45 58 63 48 59 56 53 61 64 52 53 62
Wind_Speed
5 4 4 4 5 6 8 8 6 4 4 3 2 1 0 1 0 1 0 2 3 4 4 5 5 8 9 8 8 9 7 7 5 3 5 4 2 2 1 1 1 1 2 2 2
5 6 4 5 5 6 7 7 6 5 4 3 2 1 1 2 3 3 3 4 3 2 3 5 4 4 5 6 5 7 3 4 1 2 2 2 4 3 2 1 3 2 2 1 2
6 6 6 4 5 6 6 6 5 4 3 2 4 5 6 7 8 7 8 8 7 5 4 3 3 3 3 4 3 4 3 1 3 6 8 5 2 3 1 2 3 5 4 3 1
8 6 5 5 6 6 6 5 5 6 7 7 7 6 7 7 6 6 7 8 8 7 6 4 3 3 3 2 3 4 3 2 5 6 6 3 8 1 2 2 5 5 5 5 1
6 6 6 7 8 8 7 7 6 5 6 6 4 3 4 4 4 5 6 6 7 6 5 4 2 2 3 3 3 5 4 4 4 6 1 3 4 4 3 3 3 3 4 4 0
5 5 5 6 6 6 6 5 4 4 4 4 3 2 2 1 1 1 3 4 5 5 3 2 2 1 3 5 4 8 5 1 3 3 2 6 4 5 5 5 4 3 3 3 1
4 4 5 5 7 7 6 5 5 5 5 5 6 6 5 5 4 5 5 6 5 4 2 1 1 1 2 5 6 8 7 6 2 7 10 7 4 5 6 8 6 3 3 3 2
6 6 6 6 8 9 10 10 10 10 10 10 11 11 10 10 10 11 10 10 10 7 4 4 2 2 3 3 6 7 6 8 8 8 10 9 7 9 9 7 7 7 6 5 3
10 10 10 10 11 12 13 14 15 16 16 16 16 15 15 14 15 16 15 15 13 10 5 6 5 4 4 5 4 6 7 8 9 9 9 10 10 8 8 8 7 7 7 4 3
14 14 13 12 12 13 14 15 16 18 19 19 19 20 19 19 19 19 18 17 14 11 7 7 7 8 8 6 6 6 6 9 9 9 11 12 12 10 10 10 10 7 6 4 3
16 16 16 15 16 17 18 19 19 21 22 22 22 22 23 21 22 20 20 19 17 15 12 10 11 11 10 7 6 6 7 9 10 8 7 6 9 10 12 14 15 14 9 5 4
19 19 20 20 21 23 22 22 21 21 21 22 21 22 23 21 22 20 21 20 19 17 15 13 14 16 11 9 9 8 9 12 12 9 8 6 9 10 10 13 14 14 16 12 6
21 22 23 24 25 26 25 23 21 18 17 17 16 17 17 17 17 16 15 14 14 14 14 15 18 17 14 11 10 10 12 16 12 10 9 8 6 11 13 13 15 16 15 17 12
17 17 19 19 20 21 21 20 17 15 15 13 12 14 14 13 13 11 10 10 12 14 15 13 15 17 14 12 13 12 18 18 12 9 12 9 6 11 10 14 15 16 15 17 18
17 15 16 16 16 15 17 18 16 15 14 12 12 10 9 9 8 9 8 10 12 11 12 14 17 14 12 15 15 15 20 17 11 10 9 12 9 8 14 10 15 19 19 20 19
16 17 16 15 14 14 14 17 16 17 17 12 11 11 9 11 13 14 13 13 14 15 16 19 17 17 17 19 17 16 18 16 15 14 11 14 13 7 12 15 13 14 17 21 22
15 15 16 14 13 13 15 15 17 19 17 18 18 17 15 15 17 18 18 18 18 18 20 22 21 20 20 21 18 16 16 18 19 17 12 18 19 11 16 16 16 16 12 17 21
15 15 15 15 15 15 16 17 19 20 22 21 23 22 21 21 20 20 19 18 18 18 19 19 22 20 19 19 20 20 22 20 16 15 14 17 19 10 14 21 20 19 15 16 18
14 15 17 17 17 17 17 17 18 21 21 22 23 23 21 19 19 19 19 18 17 16 15 16 20 16 17 19 20 21 23 20 23 21 24 20 16 15 15 15 20 19 17 19 17
14 15 17 19 20 19 19 18 18 19 19 19 20 20 20 20 19 20 20 18 17 16 16 16 17 17 18 16 17 19 21 24 25 23 23 18 16 16 18 13 16 20 21 21 21
16 16 17 19 19 20 21 20 20 19 20 21 22 23 23 24 22 22 24 21 20 19 18 18 17 19 19 15 17 18 18 20 24 23 20 18 14 19 19 15 16 24 25 24 22
18 18 19 21 23 24 25 24 24 23 23 23 23 24 25 25 25 25 27 26 21 21 22 21 23 20 20 22 22 21 20 18 22 21 25 27 18 17 17 20 18 23 24 24 22
19 20 21 22 22 25 27 28 29 28 27 27 27 27 27 28 28 28 27 27 27 26 28 26 28 26 24 26 28 31 26 23 23 22 26 24 16 13 15 18 16 18 26 23 21
24 23 23 24 25 26 26 29 29 30 30 29 29 28 29 30 31 32 31 33 33 34 33 34 32 36 27 22 35 33 33 32 29 27 24 25 22 20 15 17 17 18 23 26 22
26 26 26 26 26 29 29 28 29 30 30 30 30 31 31 32 34 35 35 36 37 38 39 39 39 41 42 38 40 41 37 36 38 36 34 24 23 20 16 13 18 17 18 19 22
30 29 28 28 29 29 32 32 34 35 33 35 35 36 36 37 38 38 38 38 39 42 42 43 44 45 48 44 41 42 42 41 42 41 39 35 30 23 21 17 17 19 21 22 22
32 32 31 30 31 32 31 33 35 36 38 38 37 40 40 43 39 41 42 43 43 42 43 45 45 49 48 47 49 44 43 40 40 44 43 42 35 30 31 24 19 22 22 24 25
Wind_Direction
180 165 147 129 135 165 186 195 199 198 209 193 176 173 227 239 222 119 213 74 74 66 70 77 77 68 73 71 66 55 39 24 16 193 200 185 137 98 323 346 337 334 290 260 275
177 168 159 146 146 148 154 165 170 177 182 186 203 219 184 153 94 88 86 87 99 90 81 81 91 92 85 83 81 84 22 350 1 163 216 232 202 307 305 329 320 347 328 274 251
170 165 153 170 173 162 160 167 176 188 195 172 137 130 121 110 96 85 81 80 87 85 98 117 106 106 108 105 110 99 76 251 272 230 235 229 269 306 265 22 334 327 336 322 246
145 150 149 146 145 152 159 161 157 144 135 133 131 116 111 102 103 83 76 73 71 70 79 105 164 170 147 143 176 140 113 13 311 272 263 331 346 16 192 3 357 317 318 337 266
135 138 140 140 137 139 142 144 146 144 144 145 145 135 117 108 85 78 68 63 66 66 66 73 99 208 177 184 201 182 156 349 298 287 350 14 23 41 48 353 5 329 314 338 121
165 164 164 166 164 162 162 165 173 181 184 194 206 216 183 148 56 40 33 28 41 53 38 70 71 129 210 204 218 197 178 172 349 177 348 357 12 16 30 26 3 356 350 320 323
196 194 193 199 208 210 213 217 225 227 228 229 230 235 244 270 285 295 311 328 341 357 340 317 129 209 239 212 227 225 185 190 237 286 300 319 339 346 10 17 356 350 1 332 309
235 230 225 226 233 239 242 248 252 251 249 248 251 255 256 265 277 285 294 300 306 313 307 272 235 228 252 237 243 240 234 215 236 276 290 291 315 315 335 354 355 344 337 307 279
260 256 251 250 253 255 257 256 257 259 258 257 258 262 265 267 272 278 283 286 291 293 284 258 241 230 244 253 270 272 257 245 243 252 272 288 291 300 316 335 342 344 351 345 282
266 262 256 258 261 262 264 266 266 264 263 263 263 264 267 267 268 272 275 277 279 277 265 250 237 232 239 246 258 268 263 261 251 258 269 279 279 290 300 315 321 325 340 356 317
267 267 263 262 263 266 270 273 271 268 265 265 263 263 262 263 266 268 272 274 273 269 259 251 241 238 250 264 272 274 277 271 273 273 276 262 269 276 295 307 307 305 304 313 338
268 269 270 268 266 268 270 274 275 272 265 260 260 261 263 263 265 267 267 267 266 265 260 249 246 249 253 256 262 268 271 267 270 274 275 272 269 279 285 299 301 299 297 305 307
270 270 270 268 267 266 265 267 271 272 262 257 258 258 256 253 257 261 266 268 264 263 257 248 248 255 254 250 252 259 259 262 269 284 292 290 287 278 284 287 292 297 295 301 309
273 270 267 266 269 266 255 253 259 257 255 251 243 249 248 247 251 257 255 256 254 253 252 251 255 254 249 245 241 241 247 257 265 280 292 293 290 287 263 271 276 280 280 289 297
273 271 264 265 266 262 245 241 243 241 252 246 241 242 241 239 235 241 263 258 255 262 260 248 249 261 258 251 242 232 251 261 267 267 268 275 277 278 282 243 253 257 263 273 285
279 265 265 264 265 257 247 240 239 241 246 250 244 248 253 246 254 267 266 262 263 263 256 253 253 250 246 248 246 244 258 267 267 264 257 268 255 257 271 273 262 257 266 261 266
277 275 261 262 263 256 248 245 243 246 250 252 260 263 263 256 255 261 264 260 257 259 260 263 266 257 259 256 253 244 249 259 260 259 263 256 263 231 263 267 270 269 258 255 256
279 266 259 256 257 258 251 245 242 244 247 253 259 260 259 259 261 261 259 259 260 259 261 264 267 261 257 252 249 242 237 239 250 256 264 251 262 259 246 254 260 270 271 260 256
279 270 259 258 259 257 255 250 247 247 248 251 254 257 256 254 256 258 257 256 256 262 264 266 263 269 263 261 264 261 252 246 245 256 260 263 260 272 262 251 257 255 259 259 256
279 270 264 261 261 259 256 252 248 248 247 245 246 249 254 253 249 252 254 258 256 254 249 255 262 268 264 264 260 259 258 256 253 249 254 272 267 276 273 272 247 241 240 248 254
283 276 267 261 258 258 260 257 250 250 254 253 252 252 251 253 250 250 255 256 258 260 256 255 257 262 264 261 264 254 253 254 250 241 253 266 274 261 274 266 246 234 237 246 251
286 276 272 267 261 259 259 258 254 255 259 258 259 258 255 254 252 252 254 254 249 250 255 256 257 252 261 259 257 260 265 261 254 261 269 264 253 282 259 263 243 241 242 244 254
289 284 273 267 265 260 259 257 257 256 258 261 260 260 259 255 253 250 253 254 252 249 247 247 252 251 254 256 264 266 258 251 253 252 248 256 254 264 256 278 264 240 235 237 255
289 287 279 270 266 264 261 258 258 257 257 259 260 259 257 257 257 258 257 257 256 254 252 250 249 254 240 231 244 248 256 257 250 248 254 257 262 259 259 262 259 244 232 234 245
287 286 281 275 268 262 262 259 259 259 261 260 259 257 256 256 257 257 256 258 255 255 255 255 255 256 257 245 246 251 249 246 251 252 250 247 254 265 252 255 245 251 233 238 236
289 286 280 273 267 265 261 261 261 262 261 261 261 262 261 258 257 257 258 257 255 255 255 255 256 257 259 261 255 251 248 241 244 248 252 254 248 246 246 230 224 236 232 231 235
283 281 280 276 269 266 264 261 261 264 265 266 265 264 262 260 263 260 260 258 256 255 255 254 254 256 260 259 260 254 255 256 246 244 248 251 255 251 248 239 222 226 228 226 231